[[{"header":{"parameterUnit":"m.s-1","parameterCategory":1,"la1":30.2991,"la2":30.254,"lo1":-89.0895,"lo2":-89.0444,"dy":0.0017,"dx":0.0017,"nx":28,"ny":28,"refTime":"2025-07-06T09:00:00:Z","depth":0,"parameterNumber":2,"parameterNumberName":"U-component_of_WINDS"},"data":[0,0,0,0,0,0,0,0,0,0,0,0,0,0,0,0,0,0,0,0,0,0,0,0,0,0,0,0,0,0,0,0,0,0,0,0,0,0,0,0,0,0,0,0,0,0,0,0,0,0,0,0,0,0,0,0,0,0,-1.4958,-1.4957,0,-1.4876,-1.4875,-1.4874,-1.4726,-1.4723,-1.472,-1.4718,-1.4637,-1.4637,-1.4638,0,0,0,0,0,0,0,0,0,0,0,0,0,-1.499,-1.499,-1.4958,-1.4957,-1.4956,-1.4876,-1.4875,-1.4874,-1.4727,-1.4723,-1.472,-1.4716,-1.4637,-1.4637,-1.4638,0,0,0,0,0,0,0,0,0,0,0,0,0,-1.4949,-1.499,-1.4958,-1.4873,-1.4864,-1.4876,-1.4875,-1.4873,-1.4727,-1.4723,-1.4719,-1.4715,-1.4637,-1.4637,-1.4638,-1.4728,0,0,-1.464,-1.4641,0,0,0,0,0,0,0,0,-1.4952,-1.4948,-1.4886,-1.4878,-1.4869,-1.4807,-1.4856,-1.4825,-1.4728,-1.4779,-1.4718,-1.4713,-1.4697,-1.4693,-1.4687,-1.4724,-1.472,-1.464,-1.4641,-1.4641,-1.4641,0,0,0,0,0,0,0,-1.4955,-1.4951,-1.4925,-1.4885,-1.4875,-1.4839,-1.4829,-1.485,-1.4763,-1.4775,-1.4764,-1.4756,-1.4692,-1.4686,-1.4684,-1.4719,-1.464,-1.4641,-1.4641,-1.4642,-1.4826,-1.483,0,0,0,0,0,0,-1.497,-1.4954,-1.4928,-1.4923,-1.4901,-1.4842,-1.4831,-1.4831,-1.4762,-1.4748,-1.4759,-1.4749,-1.4687,-1.4683,-1.468,-1.4781,-1.4641,-1.4642,-1.4642,-1.4822,-1.4827,-1.4832,0,0,0,0,0,0,-1.4971,-1.4969,-1.4931,-1.4935,-1.4928,-1.4846,-1.4848,-1.4832,-1.4826,-1.4751,-1.4735,-1.477,-1.4684,-1.4679,-1.4717,-1.4776,-1.4642,-1.4643,-1.4817,-1.4823,-1.483,-1.4983,0,0,0,0,0,0,-1.4972,-1.497,-1.5002,-1.4937,-1.4928,-1.4969,-1.4852,-1.4833,-1.4827,-1.4813,-1.4756,-1.4743,-1.468,-1.4717,-1.4718,-1.4774,-1.4643,-1.4811,-1.482,-1.4827,-1.4972,-1.4994,-1.5012,0,0,0,0,0,-1.4974,-1.5049,-1.5005,-1.5002,-1.4967,-1.4972,-1.4967,-1.4892,-1.4833,-1.4865,-1.4817,-1.4745,-1.4769,-1.4722,-1.4722,-1.478,-1.4807,-1.4817,-1.4827,-1.4963,-1.499,-1.5012,0,0,0,0,0,0,-1.5124,-1.5039,-1.4989,-1.5045,-1.5017,-1.4947,-1.4986,-1.4923,-1.4912,-1.4899,-1.4807,-1.4796,-1.4846,-1.4816,-1.4765,-1.4863,-1.4777,-1.4787,-1.488,-1.4905,-1.4925,-1.4931,-1.4644,0,0,0,0,0,-1.5164,-1.5175,-1.51,-1.5157,-1.5145,-1.5069,-1.5068,-1.5013,-1.498,-1.4968,-1.4922,-1.4895,-1.4896,-1.4899,-1.4896,-1.4967,-1.4953,-1.5007,-1.5027,-1.5044,-1.5054,-1.509,-1.5114,-1.4865,-1.4865,-1.4865,0,0,-1.5246,-1.5201,-1.5213,-1.5186,-1.5157,-1.5171,-1.5059,-1.5079,-1.5088,-1.4971,-1.5003,-1.497,-1.4932,-1.4988,-1.501,-1.4965,-1.512,-1.5057,-1.5071,-1.5072,-1.5103,-1.5127,-1.5148,-1.4872,-1.4871,-1.4869,0,0,-1.5403,-1.537,-1.5413,-1.5387,-1.5345,-1.5294,-1.5305,-1.5245,-1.5217,-1.5248,-1.516,-1.5171,-1.5175,-1.5153,-1.5142,-1.5291,-1.5224,-1.5293,-1.5398,-1.5435,-1.5454,-1.5471,-1.5525,-1.5545,-1.5303,-1.5303,-1.5304,0,-1.5511,-1.5527,-1.5444,-1.5469,-1.546,-1.5353,-1.5398,-1.5377,-1.5337,-1.5334,-1.5284,-1.5286,-1.5254,-1.5303,-1.5339,-1.5334,-1.5344,-1.5299,-1.5458,-1.5474,-1.5489,-1.5539,-1.5559,-1.5312,-1.5311,-1.531,-1.5309,0,-1.5661,-1.5674,-1.5715,-1.5678,-1.5673,-1.5708,-1.5632,-1.5638,-1.5583,-1.5538,-1.5571,-1.5528,-1.5515,-1.5522,-1.547,-1.5564,-1.5537,-1.5474,-1.5386,-1.5522,-1.5568,-1.5586,-1.5324,-1.5321,-1.5319,-1.5317,0,0,-1.591,-1.5827,-1.5843,-1.5826,-1.5772,-1.5781,-1.5812,-1.5797,-1.5804,-1.5781,-1.5805,-1.5811,-1.5752,-1.574,-1.5684,-1.5716,-1.5837,-1.5648,-1.5646,-1.5685,-1.5939,-1.5987,-1.6011,-1.5793,-1.5796,-1.5798,-1.5942,0,-1.6055,-1.6101,-1.6028,-1.6091,-1.6103,-1.6002,-1.6029,-1.6,-1.5958,-1.5963,-1.5917,-1.5923,-1.5844,-1.5836,-1.5863,-1.5817,-1.5887,-1.5805,-1.5815,-1.5816,-1.5827,-1.6034,-1.6085,-1.6222,-1.5959,-1.5962,-1.5964,0,-1.623,-1.6215,-1.6279,-1.6222,-1.6224,-1.6249,-1.6231,-1.6236,-1.6201,-1.6169,-1.6156,-1.6089,-1.6116,-1.6031,-1.6067,-1.6013,-1.6013,-1.5991,-1.5994,-1.5992,-1.5899,-1.6038,-1.6264,-1.6285,-1.5992,-1.5989,-1.5987,0,-1.6406,-1.6401,-1.6438,-1.6426,-1.6361,-1.6381,-1.6355,-1.6316,-1.6312,-1.6297,-1.6294,-1.6282,-1.6276,-1.6269,-1.6202,-1.6146,-1.6247,-1.6155,-1.6221,-1.6223,-1.6247,-1.6246,-1.6477,-1.6247,-1.6247,-1.6246,-1.6246,0,-1.6575,-1.6619,-1.6516,-1.654,-1.6586,-1.6502,-1.655,-1.6514,-1.648,-1.6496,-1.6409,-1.6425,-1.6335,-1.6342,-1.6289,-1.6328,-1.6326,-1.6301,-1.6287,-1.6309,-1.6312,-1.6307,-1.6296,-1.6252,-1.6251,-1.625,-1.6249,0,-1.6779,-1.6712,-1.6746,-1.6681,-1.6666,-1.6703,-1.6648,-1.6667,-1.662,-1.6641,-1.6641,-1.6568,-1.6572,-1.6504,-1.6494,-1.6459,-1.6521,-1.649,-1.6533,-1.6523,-1.6593,-1.6587,-1.6828,-1.6855,-1.6609,-1.6611,-1.6613,0,-1.6891,-1.6922,-1.6861,-1.6864,-1.6842,-1.6849,-1.6845,-1.6764,-1.6764,-1.6727,-1.6752,-1.6748,-1.6741,-1.6752,-1.6699,-1.6692,-1.6659,-1.6744,-1.6658,-1.668,-1.6661,-1.666,-1.6663,-1.6763,-1.6766,-1.6768,-1.677,0,-1.7098,-1.7064,-1.706,-1.7047,-1.7044,-1.7029,-1.7009,-1.7017,-1.6929,-1.6933,-1.6936,-1.693,-1.6921,-1.6919,-1.6902,-1.6875,-1.6809,-1.6798,-1.6813,-1.6836,-1.686,-1.6848,-1.6583,-1.6793,-1.6791,-1.6789,-1.6788,-1.6787,-1.7259,-1.7282,-1.7243,-1.7242,-1.7218,-1.7202,-1.7217,-1.7172,-1.7172,-1.7157,-1.711,-1.7121,-1.7086,-1.7056,-1.7036,-1.7044,-1.7003,-1.7024,-1.7029,-1.7036,-1.7049,-1.6859,-1.7041,-1.704,-1.7039,-1.7039,-1.7038,0,-1.7462,-1.7431,-1.7432,-1.7406,-1.7406,-1.7343,-1.7317,-1.7322,-1.7332,-1.7305,-1.73,-1.7304,-1.7302,-1.7249,-1.724,-1.7257,-1.7227,-1.7258,-1.7256,-1.7251,-1.7087,-1.7075,-1.7283,-1.7283,-1.7283,-1.7283,-1.7283,-1.7283,-1.7567,-1.7603,-1.7564,-1.7588,-1.7557,-1.7566,-1.7557,-1.7542,-1.7519,-1.7527,-1.7525,-1.749,-1.7452,-1.7441,-1.7437,-1.7421,-1.7422,-1.7464,-1.7439,-1.7286,-1.7262,-1.724,-1.7228,-1.7465,-1.7465,-1.7601,-1.7603,-1.7604]},{"header":{"parameterUnit":"m.s-1","parameterCategory":1,"la1":30.2991,"la2":30.254,"lo1":-89.0895,"lo2":-89.0444,"dy":0.0017,"dx":0.0017,"nx":28,"ny":28,"refTime":"2025-07-06T09:00:00:Z","depth":0,"parameterNumber":3,"parameterNumberName":"V-component_of_WINDS"},"data":[0,0,0,0,0,0,0,0,0,0,0,0,0,0,0,0,0,0,0,0,0,0,0,0,0,0,0,0,0,0,0,0,0,0,0,0,0,0,0,0,0,0,0,0,0,0,0,0,0,0,0,0,0,0,0,0,0,0,1.2737,1.2736,0,1.2624,1.2622,1.2621,1.256,1.256,1.256,1.256,1.2441,1.2438,1.2435,0,0,0,0,0,0,0,0,0,0,0,0,0,1.2901,1.2898,1.2738,1.2736,1.2735,1.2624,1.2622,1.2621,1.256,1.256,1.256,1.256,1.2442,1.2438,1.2434,0,0,0,0,0,0,0,0,0,0,0,0,0,1.2813,1.2897,1.2738,1.2691,1.2686,1.2624,1.2622,1.262,1.256,1.256,1.256,1.256,1.2443,1.2438,1.2434,1.2409,0,0,1.242,1.2418,0,0,0,0,0,0,0,0,1.2818,1.2807,1.2699,1.2694,1.2688,1.2606,1.2636,1.2549,1.256,1.2608,1.256,1.256,1.2496,1.2487,1.2466,1.2403,1.2398,1.2419,1.2417,1.2415,1.2413,0,0,0,0,0,0,0,1.2824,1.2811,1.2692,1.2698,1.2691,1.2675,1.2663,1.2619,1.2554,1.2604,1.2599,1.2586,1.2492,1.247,1.2462,1.2396,1.2419,1.2415,1.2413,1.2411,1.2308,1.2308,0,0,0,0,0,0,1.2838,1.2817,1.2696,1.2689,1.2754,1.2673,1.2658,1.2632,1.2554,1.2542,1.2587,1.2584,1.2478,1.2468,1.2458,1.2423,1.2415,1.241,1.2408,1.2308,1.2308,1.2308,0,0,0,0,0,0,1.2842,1.2828,1.2701,1.2752,1.2734,1.267,1.2641,1.263,1.2608,1.2542,1.2529,1.2576,1.2478,1.2464,1.2422,1.2418,1.2408,1.2404,1.2308,1.2308,1.2308,1.2354,0,0,0,0,0,0,1.2846,1.2829,1.282,1.2752,1.2732,1.2667,1.2641,1.2628,1.26,1.2596,1.2528,1.2517,1.2476,1.2429,1.2417,1.2412,1.24,1.2308,1.2308,1.2308,1.2352,1.2355,1.2358,0,0,0,0,0,1.2853,1.2836,1.2819,1.2805,1.2718,1.2667,1.2655,1.261,1.2601,1.259,1.2547,1.2519,1.2421,1.2425,1.2411,1.2404,1.2308,1.2308,1.2308,1.2351,1.2355,1.2358,0,0,0,0,0,0,1.2904,1.2827,1.2807,1.2769,1.2725,1.2657,1.2642,1.2615,1.2573,1.257,1.2515,1.25,1.2462,1.2429,1.2435,1.2376,1.2361,1.2359,1.2399,1.2402,1.2405,1.2413,1.2397,0,0,0,0,0,1.2912,1.2877,1.2811,1.2783,1.2763,1.2706,1.2682,1.2651,1.2603,1.2584,1.2538,1.2492,1.2451,1.2425,1.2383,1.2348,1.2332,1.2336,1.2339,1.2342,1.234,1.2318,1.2319,1.2308,1.2308,1.2308,0,0,1.2925,1.2879,1.286,1.2793,1.2755,1.272,1.2691,1.2655,1.2628,1.2578,1.2535,1.25,1.2445,1.2406,1.2387,1.2377,1.234,1.2342,1.2345,1.2341,1.2318,1.232,1.2321,1.2308,1.2308,1.2308,0,0,1.2933,1.2894,1.2867,1.2831,1.2775,1.2737,1.2731,1.2667,1.2642,1.2598,1.2561,1.2528,1.2458,1.242,1.2392,1.2387,1.2359,1.2375,1.2389,1.2369,1.237,1.237,1.2367,1.2367,1.2373,1.2373,1.2373,0,1.2957,1.2903,1.2856,1.2822,1.2793,1.2749,1.272,1.2687,1.262,1.2601,1.2592,1.2504,1.2463,1.2415,1.2414,1.2393,1.2383,1.2381,1.2373,1.2373,1.2373,1.237,1.2369,1.2375,1.2375,1.2375,1.2375,0,1.2934,1.2898,1.2882,1.282,1.2789,1.2759,1.2707,1.2682,1.2654,1.2618,1.2574,1.2525,1.2472,1.2459,1.2431,1.2406,1.2402,1.2384,1.2368,1.2377,1.2373,1.2371,1.2379,1.2378,1.2377,1.2377,0,0,1.2969,1.2883,1.2878,1.2849,1.2784,1.2755,1.2722,1.2672,1.2651,1.2607,1.2577,1.252,1.2503,1.2471,1.2439,1.2421,1.2419,1.2405,1.2403,1.2409,1.2388,1.2401,1.2401,1.2402,1.2401,1.2401,1.2393,0,1.2966,1.2906,1.2863,1.2819,1.2784,1.2742,1.2713,1.267,1.2636,1.2601,1.2563,1.2523,1.2504,1.2485,1.2466,1.2424,1.2414,1.2424,1.2372,1.2371,1.2386,1.2398,1.2412,1.2406,1.2391,1.2391,1.239,0,1.2954,1.2912,1.2865,1.2804,1.2788,1.2763,1.2714,1.2681,1.2632,1.2608,1.2574,1.2541,1.2504,1.2493,1.244,1.2448,1.2425,1.2401,1.24,1.2392,1.238,1.239,1.2404,1.2402,1.2388,1.2388,1.2388,0,1.2983,1.2915,1.2877,1.2854,1.2783,1.2766,1.2736,1.2687,1.2659,1.2616,1.2598,1.2551,1.2525,1.2489,1.2445,1.2441,1.2397,1.2382,1.2375,1.2376,1.2366,1.2367,1.2375,1.2354,1.2354,1.2354,1.2354,0,1.2983,1.2955,1.2889,1.2866,1.2834,1.2786,1.2755,1.2721,1.2678,1.2647,1.2608,1.2579,1.2523,1.2487,1.2452,1.2414,1.2403,1.2382,1.2373,1.2385,1.2387,1.2367,1.2366,1.2354,1.2354,1.2354,1.2354,0,1.3009,1.2964,1.292,1.2857,1.2841,1.282,1.2765,1.2741,1.2705,1.2667,1.2655,1.2598,1.2555,1.2508,1.2448,1.2424,1.2388,1.2375,1.2405,1.2399,1.2395,1.2395,1.2389,1.2385,1.2368,1.2369,1.2369,0,1.3011,1.2989,1.2924,1.2901,1.2872,1.2835,1.2807,1.276,1.2732,1.2675,1.2657,1.2611,1.2572,1.2504,1.2458,1.2412,1.2397,1.2398,1.239,1.2403,1.2396,1.2397,1.2394,1.24,1.2401,1.2401,1.2401,0,1.302,1.2999,1.2961,1.2915,1.2883,1.2844,1.2804,1.2787,1.2732,1.2703,1.2658,1.2628,1.2568,1.2522,1.2471,1.2439,1.2411,1.2405,1.2401,1.2412,1.2429,1.2418,1.241,1.2405,1.2404,1.2404,1.2404,1.2404,1.3033,1.3011,1.2962,1.2921,1.2886,1.285,1.2824,1.2785,1.2748,1.2695,1.267,1.2625,1.2577,1.2506,1.2475,1.2439,1.243,1.2424,1.2422,1.2421,1.2424,1.2437,1.243,1.2429,1.2429,1.2429,1.2429,0,1.3039,1.3005,1.2968,1.2913,1.2881,1.2859,1.2813,1.2787,1.2749,1.2707,1.2669,1.2618,1.2574,1.2525,1.2478,1.2459,1.2444,1.2448,1.2448,1.2441,1.2435,1.2443,1.246,1.246,1.246,1.246,1.246,1.246,1.3038,1.2999,1.2973,1.2917,1.2884,1.284,1.2816,1.2782,1.2748,1.2694,1.2657,1.2626,1.258,1.253,1.2488,1.2475,1.2459,1.2466,1.2448,1.2444,1.2441,1.2439,1.2446,1.2463,1.2463,1.2456,1.2456,1.2456]}]]